| time (UTC) | temp F | wind direction | speed knots | gust knots | rain 1hr in | rain 24hr in | rain mn in | humidity % | barometer mb |
| 20260503072059 | 61 | 243 | 0.0 | 1.7 | 0.00 | 0.00 | 0.00 | 95 | 1010.5 |
| 20260503071051 | 60 | 47 | 0.0 | 0.0 | 0.00 | 0.00 | 0.00 | 95 | 1010.4 |
| 20260503055021 | 57 | 6 | 0.0 | 0.0 | 0.00 | 0.00 | 0.00 | 95 | 1010.3 |
| 20260503054006 | 56 | 6 | 0.0 | 0.0 | 0.00 | 0.00 | 0.00 | 95 | 1010.3 |
| 20260503053100 | 56 | 6 | 0.0 | 0.0 | 0.00 | 0.00 | 0.00 | 95 | 1010.3 |
| 20260503052053 | 55 | 6 | 0.0 | 0.0 | 0.00 | 0.00 | 0.00 | 95 | 1010.3 |
| 20260503051046 | 55 | 6 | 0.0 | 0.0 | 0.00 | 0.00 | 0.00 | 95 | 1010.3 |
| 20260503050040 | 55 | 6 | 0.0 | 0.0 | 0.00 | 0.00 | 0.00 | 95 | 1010.3 |
| 20260503045026 | 55 | 6 | 0.0 | 0.0 | 0.00 | 0.00 | 0.00 | 95 | 1010.3 |
| 20260503044012 | 55 | 6 | 0.0 | 0.0 | 0.00 | 0.00 | 0.00 | 96 | 1010.4 |
| 20260503043004 | 55 | 6 | 0.0 | 0.0 | 0.00 | 0.00 | 0.00 | 96 | 1010.5 |
| 20260503042058 | 55 | 6 | 0.0 | 0.0 | 0.00 | 0.00 | 0.00 | 96 | 1010.6 |
| 20260503041051 | 55 | 6 | 0.0 | 0.0 | 0.00 | 0.00 | 0.00 | 96 | 1010.7 |
| 20260503040044 | 55 | 6 | 0.0 | 0.0 | 0.00 | 0.00 | 0.00 | 96 | 1010.7 |
| 20260503035036 | 55 | 6 | 0.0 | 0.0 | 0.00 | 0.00 | 0.00 | 96 | 1010.7 |
| 20260503034029 | 56 | 6 | 0.0 | 0.0 | 0.00 | 0.00 | 0.00 | 96 | 1010.6 |
| 20260503033021 | 55 | 6 | 0.0 | 0.0 | 0.00 | 0.00 | 0.00 | 96 | 1010.6 |
| 20260503032007 | 55 | 6 | 0.0 | 0.0 | 0.00 | 0.00 | 0.00 | 96 | 1010.5 |
| 20260503030055 | 55 | 6 | 0.0 | 0.0 | 0.00 | 0.00 | 0.00 | 96 | 1010.7 |
| 20260503025048 | 55 | 6 | 0.0 | 0.0 | 0.00 | 0.00 | 0.00 | 96 | 1010.8 |
| 20260503024041 | 55 | 6 | 0.0 | 0.0 | 0.00 | 0.00 | 0.00 | 95 | 1010.9 |
| 20260503023034 | 56 | 6 | 0.0 | 0.9 | 0.00 | 0.00 | 0.00 | 95 | 1011.0 |
| 20260503022027 | 56 | 6 | 0.0 | 0.0 | 0.00 | 0.00 | 0.00 | 95 | 1011.0 |
| 20260503021017 | 57 | 6 | 0.0 | 0.0 | 0.00 | 0.00 | 0.00 | 95 | 1011.0 |
| 20260503020005 | 57 | 6 | 0.0 | 0.0 | 0.00 | 0.00 | 0.00 | 95 | 1011.2 |
| 20260503015057 | 56 | 6 | 0.0 | 0.0 | 0.00 | 0.00 | 0.00 | 95 | 1011.2 |
| 20260503014050 | 57 | 6 | 0.0 | 0.0 | 0.00 | 0.00 | 0.00 | 95 | 1011.4 |
| 20260503013043 | 57 | 6 | 0.0 | 0.0 | 0.00 | 0.00 | 0.00 | 95 | 1011.4 |
| 20260503012036 | 57 | 6 | 0.0 | 0.0 | 0.00 | 0.00 | 0.00 | 95 | 1011.4 |
| 20260503011021 | 57 | 6 | 0.0 | 0.0 | 0.00 | 0.00 | 0.00 | 95 | 1011.4 |
| 20260503010007 | 57 | 6 | 0.0 | 0.0 | 0.00 | 0.00 | 0.00 | 95 | 1011.4 |
| 20260503005100 | 57 | 6 | 0.0 | 0.0 | 0.00 | 0.00 | 0.00 | 95 | 1011.4 |
| 20260503004052 | 57 | 6 | 0.0 | 0.0 | 0.00 | 0.00 | 0.00 | 95 | 1011.5 |
| 20260503003045 | 56 | 6 | 0.0 | 0.0 | 0.00 | 0.00 | 0.00 | 95 | 1011.7 |
| 20260503002038 | 57 | 17 | 0.0 | 0.9 | 0.00 | 0.00 | 0.00 | 95 | 1011.8 |
| 20260503001031 | 57 | 33 | 0.9 | 0.9 | 0.00 | 0.00 | 0.00 | 95 | 1011.8 |
| 20260503000019 | 57 | 344 | 0.0 | 0.0 | 0.00 | 0.00 | 0.00 | 95 | 1012.1 |
| 20260502235008 | 57 | 344 | 0.0 | 0.0 | 0.00 | 0.00 | 0.00 | 95 | 1012.3 |
| 20260502234101 | 57 | 344 | 0.0 | 0.9 | 0.00 | 0.00 | 0.00 | 95 | 1012.2 |
| 20260502233054 | 58 | 14 | 0.0 | 0.0 | 0.00 | 0.00 | 0.00 | 95 | 1012.2 |
| 20260502232047 | 58 | 14 | 0.0 | 0.9 | 0.00 | 0.00 | 0.00 | 95 | 1012.4 |
| 20260502231039 | 58 | 356 | 0.0 | 0.9 | 0.00 | 0.00 | 0.00 | 95 | 1012.5 |
| 20260502230033 | 58 | 330 | 0.0 | 0.9 | 0.00 | 0.00 | 0.00 | 94 | 1012.6 |
| 20260502225023 | 59 | 325 | 0.0 | 3.5 | 0.00 | 0.00 | 0.00 | 94 | 1012.6 |
| 20260502224011 | 59 | 310 | 0.9 | 0.9 | 0.00 | 0.00 | 0.00 | 94 | 1012.5 |
| 20260502223003 | 59 | 45 | 0.0 | 0.9 | 0.00 | 0.00 | 0.00 | 94 | 1012.2 |
| 20260502222055 | 59 | 97 | 0.0 | 0.9 | 0.00 | 0.00 | 0.00 | 94 | 1012.1 |
| 20260502221049 | 59 | 34 | 0.0 | 0.9 | 0.00 | 0.00 | 0.00 | 93 | 1012.2 |
| 20260502220042 | 59 | 84 | 0.0 | 1.7 | 0.00 | 0.00 | 0.00 | 93 | 1012.2 |
| 20260502215035 | 59 | 102 | 0.0 | 0.0 | 0.00 | 0.00 | 0.19 | 92 | 1012.4 |
| 20260502214027 | 59 | 102 | 0.0 | 0.9 | 0.00 | 0.00 | 0.19 | 91 | 1012.4 |
| 20260502213011 | 59 | 82 | 0.0 | 1.7 | 0.00 | 0.00 | 0.19 | 91 | 1012.3 |
| 20260502212004 | 59 | 61 | 0.0 | 2.6 | 0.00 | 0.00 | 0.19 | 90 | 1012.3 |
| 20260502211056 | 59 | 15 | 0.9 | 2.6 | 0.00 | 0.00 | 0.19 | 90 | 1012.3 |
| 20260502210049 | 60 | 359 | 0.9 | 5.2 | 0.00 | 0.00 | 0.19 | 89 | 1012.5 |
| 20260502205042 | 60 | 44 | 3.5 | 3.5 | 0.07 | 0.00 | 0.19 | 88 | 1012.5 |
| 20260502204035 | 61 | 29 | 1.7 | 6.1 | 1.02 | 0.00 | 0.18 | 86 | 1012.7 |
| 20260502203028 | 63 | 333 | 0.9 | 8.7 | 0.05 | 0.00 | 0.01 | 77 | 1013.7 |
| 20260502202011 | 65 | 333 | 1.7 | 6.1 | 0.00 | 0.00 | 0.00 | 71 | 1012.9 |
| 20260502201004 | 66 | 320 | 3.5 | 7.8 | 0.00 | 0.00 | 0.00 | 68 | 1012.9 |
| 20260502200058 | 68 | 278 | 3.5 | 13.9 | 0.00 | 0.00 | 0.00 | 66 | 1013.3 |
| 20260502195051 | 67 | 80 | 0.9 | 1.7 | 0.00 | 0.00 | 0.00 | 64 | 1012.3 |
| 20260502194043 | 67 | 95 | 1.7 | 1.7 | 0.00 | 0.00 | 0.00 | 68 | 1012.0 |
| 20260502193101 | 68 | 244 | 0.0 | 0.0 | 0.00 | 0.00 | 0.00 | 66 | 1012.1 |
| 20260502192054 | 68 | 244 | 0.0 | 0.0 | 0.00 | 0.00 | 0.00 | 65 | 1012.1 |
| 20260502191046 | 69 | 244 | 0.0 | 0.0 | 0.00 | 0.00 | 0.00 | 64 | 1012.1 |
| 20260502190039 | 69 | 244 | 0.0 | 0.0 | 0.00 | 0.00 | 0.00 | 63 | 1012.0 |
| 20260502185032 | 70 | 244 | 0.0 | 0.0 | 0.00 | 0.00 | 0.00 | 62 | 1012.2 |
| 20260502184025 | 71 | 244 | 0.0 | 0.0 | 0.00 | 0.00 | 0.00 | 60 | 1012.1 |
| 20260502183005 | 71 | 244 | 0.0 | 0.0 | 0.00 | 0.00 | 0.00 | 59 | 1012.2 |
| 20260502182056 | 72 | 244 | 0.0 | 0.0 | 0.00 | 0.00 | 0.00 | 58 | 1012.2 |
| 20260502181050 | 73 | 244 | 0.0 | 0.0 | 0.00 | 0.00 | 0.00 | 56 | 1012.2 |
| 20260502164100 | 77 | 220 | 0.9 | 1.7 | 0.00 | 0.00 | 0.00 | 47 | 1012.7 |
| 20260502163033 | 76 | 204 | 0.9 | 2.6 | 0.00 | 0.00 | 0.00 | 47 | 1012.9 |
| 20260502162010 | 76 | 234 | 2.6 | 2.6 | 0.00 | 0.00 | 0.00 | 47 | 1013.0 |
| 20260502161003 | 77 | 218 | 1.7 | 3.5 | 0.00 | 0.00 | 0.00 | 49 | 1013.2 |
| 20260502152027 | 77 | 204 | 3.5 | 5.2 | 0.00 | 0.00 | 0.00 | 46 | 1013.7 |
| 20260502151012 | 77 | 223 | 2.6 | 5.2 | 0.00 | 0.00 | 0.00 | 47 | 1014.0 |
| 20260502123059 | 75 | 271 | 2.6 | 5.2 | 0.00 | 0.00 | 0.00 | 53 | 1016.0 |
| 20260502122049 | 75 | 296 | 0.9 | 3.5 | 0.00 | 0.00 | 0.00 | 52 | 1016.3 |
| 20260502121043 | 74 | 241 | 1.7 | 1.7 | 0.00 | 0.00 | 0.00 | 51 | 1016.3 |
| 20260502115029 | 74 | 265 | 4.3 | 6.1 | 0.00 | 0.00 | 0.00 | 54 | 1016.6 |
| 20260502114020 | 74 | 318 | 0.9 | 7.0 | 0.00 | 0.00 | 0.00 | 56 | 1016.8 |
| 20260502113008 | 74 | 245 | 1.7 | 6.1 | 0.00 | 0.00 | 0.00 | 56 | 1016.9 |
| 20260502112101 | 74 | 220 | 1.7 | 6.1 | 0.00 | 0.00 | 0.00 | 57 | 1017.0 |
| 20260502111054 | 74 | 249 | 2.6 | 7.0 | 0.00 | 0.00 | 0.00 | 56 | 1017.1 |
| 20260502110047 | 73 | 227 | 1.7 | 2.6 | 0.00 | 0.00 | 0.00 | 55 | 1017.1 |
| 20260502105040 | 74 | 324 | 1.7 | 5.2 | 0.00 | 0.00 | 0.00 | 57 | 1017.2 |
| 20260502104032 | 74 | 227 | 0.9 | 6.1 | 0.00 | 0.00 | 0.00 | 57 | 1017.2 |
| 20260502103021 | 75 | 299 | 0.9 | 3.5 | 0.00 | 0.00 | 0.00 | 55 | 1017.2 |
| 20260502102006 | 74 | 222 | 1.7 | 2.6 | 0.00 | 0.00 | 0.00 | 55 | 1017.3 |
| 20260502101059 | 74 | 217 | 0.0 | 5.2 | 0.00 | 0.00 | 0.00 | 57 | 1017.4 |
| 20260502091011 | 75 | 241 | 0.9 | 5.2 | 0.00 | 0.00 | 0.00 | 58 | 1017.8 |